Weather History for KAEG - May, 2013

Change the Weather History Date:

Friday, May 17, 2013

  Actual Average Record
Temperature  
Mean Temperature 63 °F -  
Max Temperature 82 °F - - ()
Min Temperature 44 °F - - ()
Degree Days  
Heating Degree Days 2    
Growing Degree Days 13 (Base 50)    
Moisture  
Dew Point 11 °F    
Average Humidity 14    
Maximum Humidity 21    
Minimum Humidity 6    
Precipitation  
Precipitation 0.00 in - - ()
Sea Level Pressure  
Sea Level Pressure 30.04 in    
Wind  
Wind Speed 9 mph (West)    
Max Wind Speed 18 mph    
Max Gust Speed 33 mph    
Visibility 10 miles    
Events      
T = Trace of Precipitation, MM = Missing Value Source: NWS Daily Summary

Daily Weather History Graph

Daily Weather History Graph

Search for Another Location

Airport or City:

Trip Planner

Search our weather history database for the weather conditions in past years. The results will help you decide how hot, cold, wet, or windy it might be!

Date:

Astronomy

May. 17, 2013 Rise Set
Actual Time 6:01 AM MDT 8:06 PM MDT
Civil Twilight 5:33 AM MDT 8:34 PM MDT
Nautical Twilight 4:58 AM MDT 9:08 PM MDT
Astronomical Twilight 4:21 AM MDT 9:46 PM MDT
Moon 12:30 PM MDT (5/17) 1:05 AM MDT (5/17)
Length of Visible Light 15h 01m
Length of Day
14h 04m
Waxing Crescent, 46% of the Moon is Illuminated
May 17
Waxing Crescent
May 17
First Quarter
May 24
Full
May 31
Last Quarter
Jun 8
New

Hourly Weather History & Observations

Time (MDT) Temp. Windchill Dew Point Humidity Pressure Visibility Wind Dir Wind Speed Gust Speed Precip Events Conditions
12:15 AM 62.6 °F - 10.4 °F 13% 30.01 in 10.0 mi WNW 15.0 mph - N/A   Clear
12:35 AM 62.6 °F - 10.4 °F 13% 30.01 in 10.0 mi WNW 16.1 mph - N/A   Clear
12:55 AM 62.6 °F - 12.2 °F 14% 30.01 in 10.0 mi WNW 15.0 mph - N/A   Clear
1:15 AM 62.6 °F - 12.2 °F 14% 30.02 in 10.0 mi WNW 12.7 mph - N/A   Clear
1:35 AM 59.0 °F - 12.2 °F 16% 30.02 in 10.0 mi West 11.5 mph - N/A   Clear
1:55 AM 59.0 °F - 12.2 °F 16% 30.02 in 10.0 mi West 8.1 mph - N/A   Clear
2:15 AM 55.4 °F - 10.4 °F 17% 30.03 in 10.0 mi East 5.8 mph - N/A   Clear
2:35 AM 59.0 °F - 12.2 °F 16% 30.03 in 10.0 mi ENE 3.5 mph - N/A   Clear
2:55 AM 59.0 °F - 12.2 °F 16% 30.04 in 10.0 mi North 4.6 mph - N/A   Clear
3:15 AM 55.4 °F - 10.4 °F 17% 30.04 in 10.0 mi Calm Calm - N/A   Clear
3:35 AM 55.4 °F - 12.2 °F 18% 30.04 in 10.0 mi Calm Calm - N/A   Partly Cloudy
3:55 AM 51.8 °F - 10.4 °F 19% 30.05 in 10.0 mi East 3.5 mph - N/A   Partly Cloudy
4:15 AM 50.0 °F - 8.6 °F 19% 30.06 in 10.0 mi NNW 4.6 mph - N/A   Partly Cloudy
4:35 AM 51.8 °F - 10.4 °F 19% 30.06 in 10.0 mi NNW 4.6 mph - N/A   Scattered Clouds
4:55 AM 48.2 °F - 8.6 °F 20% 30.06 in 10.0 mi Calm Calm - N/A   Scattered Clouds
5:15 AM 50.0 °F - 8.6 °F 19% 30.06 in 10.0 mi North 4.6 mph - N/A   Partly Cloudy
5:35 AM 44.6 °F 43.1 °F 6.8 °F 21% 30.07 in 10.0 mi East 3.5 mph - N/A   Clear
6:50 AM 50.0 °F - 10.4 °F 20% 30.10 in 10.0 mi Calm Calm - N/A   Scattered Clouds
7:50 AM 62.6 °F - 15.8 °F 16% 30.11 in 10.0 mi SSE 4.6 mph - N/A   Scattered Clouds
8:50 AM 66.2 °F - 15.8 °F 14% 30.11 in 10.0 mi SSE 4.6 mph - N/A   Mostly Cloudy
9:50 AM 68.0 °F - 17.6 °F 15% 30.11 in 10.0 mi SSE 4.6 mph - N/A   Scattered Clouds
10:50 AM 71.6 °F - 17.6 °F 13% 30.13 in 10.0 mi SE 9.2 mph - N/A   Mostly Cloudy
11:50 AM 75.2 °F - 14.0 °F 10% 30.09 in 10.0 mi SSW 6.9 mph - N/A   Mostly Cloudy
1:50 PM 78.8 °F - 14.0 °F 9% 30.03 in 10.0 mi South 12.7 mph - N/A   Scattered Clouds
2:50 PM 82.4 °F - 8.6 °F 6% 30.00 in 10.0 mi SSW 8.1 mph - N/A   Scattered Clouds
3:50 PM 82.4 °F - 15.8 °F 8% 29.98 in 10.0 mi SSE 12.7 mph 25.3 mph N/A   Scattered Clouds
4:50 PM 82.4 °F - 12.2 °F 7% 29.95 in 10.0 mi SE 17.3 mph - N/A   Scattered Clouds
5:50 PM 80.6 °F - 15.8 °F 9% 29.94 in 10.0 mi SE 13.8 mph - N/A   Scattered Clouds
7:50 PM 78.8 °F - 14.0 °F 9% 29.95 in 10.0 mi WSW 18.4 mph 33.4 mph N/A   Mostly Cloudy
10:15 PM 71.6 °F - 5.0 °F 7% 30.02 in 10.0 mi WNW 9.2 mph - N/A   Clear
10:35 PM 66.2 °F - 5.0 °F 9% 30.02 in 10.0 mi NW 10.4 mph - N/A   Clear
10:55 PM 69.8 °F - 6.8 °F 9% 30.03 in 10.0 mi WNW 13.8 mph - N/A   Clear
11:15 PM 68.0 °F - 6.8 °F 9% 30.04 in 10.0 mi NW 9.2 mph 17.3 mph N/A   Clear
11:35 PM 66.2 °F - 8.6 °F 11% 30.04 in 10.0 mi NW 8.1 mph - N/A   Clear
11:55 PM 64.4 °F - 6.8 °F 10% 30.03 in 10.0 mi NNW 8.1 mph - N/A   Clear